Date String (YYYY-MM-DD hh:mm:ss) UTC,Instrument flags,Ambient pressure (hPa),Sample flow (lpm),Bypass flow (lpm),Sample temperature (°C),Ambient temperature (°C),ASC tube jacket temperature (°C),LED temperature (°C),Box temperature (°C),Sample RH (%),Span deviation,Mass concentration (μg/m³),Mass concentration (μg/m³),Mass concentration (μg/m³)
DateTimeUTC,F1_M11,P_M11,Q1_M11,Q2_M11,T1_M11,T2_M11,T3_M11,T4_M11,T5_M11,U1_M11,ZSPAN_M11,X0_M11,X2_M11,X1_M11
2022-05-07 15:00:00,,0816.7,5.01,0.00,30.4,29.4,00.0,39.2,32.2,12.0,0000.0,0011.79,0003.85,0002.35
2022-05-07 15:01:00,,0816.4,5.00,0.00,30.4,29.1,00.0,39.2,32.1,11.4,0000.0,0012.07,0003.88,0002.33
2022-05-07 15:02:00,,0816.4,5.00,0.00,30.3,27.1,00.0,39.2,31.6,10.8,0000.0,0012.37,0003.95,0002.35
2022-05-07 15:03:00,,0816.4,5.00,0.00,30.2,26.4,00.0,39.2,31.5,10.6,0000.0,0013.09,0003.99,0002.37
2022-05-07 15:04:00,,0816.7,5.00,0.00,30.1,26.8,00.0,39.1,31.5,11.2,0000.0,0012.89,0003.97,0002.36
2022-05-07 15:05:00,,0816.5,4.99,0.00,30.0,27.2,00.0,39.1,31.5,11.9,0000.0,0012.90,0003.90,0002.35
2022-05-07 15:06:00,,0816.4,5.01,0.00,30.0,27.5,00.0,39.0,31.6,12.1,0000.0,0012.92,0003.84,0002.34
2022-05-07 15:07:00,,0816.4,5.00,0.00,30.0,27.9,00.0,39.0,31.6,12.7,0000.0,0012.34,0003.83,0002.33
2022-05-07 15:08:00,,0816.4,4.99,0.00,30.0,28.2,00.0,39.0,31.7,12.6,0000.0,0012.18,0003.79,0002.33
2022-05-07 15:09:00,,0816.4,5.00,0.00,30.0,28.4,00.0,39.0,31.7,12.2,0000.0,0011.85,0003.75,0002.31
2022-05-07 15:10:00,,0816.3,5.00,0.00,30.1,28.5,00.0,39.0,31.8,12.3,0000.0,0012.07,0003.75,0002.29
2022-05-07 15:11:00,,0816.3,5.00,0.00,30.1,28.7,00.0,39.0,31.8,12.5,0000.0,0012.04,0003.74,0002.29
2022-05-07 15:12:00,,0816.4,4.99,0.00,30.1,28.8,00.0,39.0,31.8,12.6,0000.0,0011.55,0003.71,0002.30
2022-05-07 15:13:00,,0816.4,4.98,0.00,30.1,28.9,00.0,39.0,31.9,11.9,0000.0,0011.15,0003.66,0002.28
2022-05-07 15:14:00,,0816.4,4.98,0.00,30.2,29.0,00.0,39.0,31.9,11.8,0000.0,0010.94,0003.60,0002.27
2022-05-07 15:15:00,,0816.4,5.01,0.00,30.2,29.1,00.0,39.0,32.0,11.8,0000.0,0011.28,0003.61,0002.28
2022-05-07 15:16:00,,0816.4,5.01,0.00,30.2,29.1,00.0,39.0,32.0,12.2,0000.0,0011.35,0003.65,0002.28
2022-05-07 15:17:00,,0816.4,5.00,0.00,30.2,29.2,00.0,39.1,32.0,11.9,0000.0,0011.40,0003.69,0002.28
2022-05-07 15:18:00,,0816.4,4.99,0.00,30.3,29.2,00.0,39.1,32.0,12.0,0000.0,0010.94,0003.69,0002.29
2022-05-07 15:19:00,,0816.3,5.00,0.00,30.3,29.0,00.0,39.1,32.0,12.0,0000.0,0010.86,0003.76,0002.28
2022-05-07 15:20:00,,0816.2,5.01,0.00,30.2,27.1,00.0,39.1,31.6,12.8,0000.0,0011.22,0003.79,0002.28
2022-05-07 15:21:00,,0816.1,4.99,0.00,30.1,26.0,00.0,39.1,31.4,12.5,0000.0,0011.53,0003.81,0002.28
2022-05-07 15:22:00,,0816.1,5.00,0.00,30.0,26.5,00.0,39.0,31.4,13.1,0000.0,0011.66,0003.83,0002.26
2022-05-07 15:23:00,,0816.1,5.01,0.00,29.9,26.9,00.0,39.0,31.5,13.6,0000.0,0011.82,0003.84,0002.25
2022-05-07 15:24:00,,0816.1,5.00,0.00,29.9,27.3,00.0,38.9,31.5,13.6,0000.0,0011.81,0003.84,0002.25
2022-05-07 15:25:00,,0816.1,5.00,0.00,29.9,27.6,00.0,38.9,31.6,13.1,0000.0,0011.27,0003.81,0002.25
2022-05-07 15:26:00,,0816.2,5.01,0.00,29.9,27.9,00.0,38.9,31.6,13.7,0000.0,0010.64,0003.79,0002.25
2022-05-07 15:27:00,,0816.3,5.00,0.00,30.0,28.2,00.0,38.9,31.7,14.0,0000.0,0010.34,0003.75,0002.26
2022-05-07 15:28:00,,0816.1,4.99,0.00,30.0,28.4,00.0,38.9,31.7,13.6,0000.0,0009.76,0003.73,0002.27
2022-05-07 15:29:00,,0816.0,5.00,0.00,30.0,28.5,00.0,38.9,31.8,13.5,0000.0,0009.78,0003.71,0002.26
2022-05-07 15:30:00,,0816.0,5.00,0.00,30.0,28.7,00.0,38.9,31.8,13.3,0000.0,0009.47,0003.68,0002.26
2022-05-07 15:31:00,,0815.9,5.00,0.00,30.0,28.8,00.0,38.9,31.8,13.3,0000.0,0009.10,0003.68,0002.27
2022-05-07 15:32:00,,0816.0,4.99,0.00,30.1,28.9,00.0,38.9,31.9,13.9,0000.0,0008.86,0003.71,0002.29
2022-05-07 15:33:00,,0816.0,4.99,0.00,30.1,29.0,00.0,38.9,31.9,14.2,0000.0,0008.99,0003.73,0002.30
2022-05-07 15:34:00,,0816.0,5.01,0.00,30.1,28.7,00.0,39.0,31.9,13.6,0000.0,0009.04,0003.72,0002.30
2022-05-07 15:35:00,,0815.9,4.99,0.00,30.0,26.7,00.0,38.9,31.4,13.2,0000.0,0010.13,0003.73,0002.32
2022-05-07 15:36:00,,0815.8,5.00,0.00,29.9,25.8,00.0,38.9,31.3,12.8,0000.0,0010.35,0003.74,0002.33
2022-05-07 15:37:00,,0815.8,5.00,0.00,29.9,26.3,00.0,38.9,31.3,13.0,0000.0,0011.14,0003.77,0002.33
2022-05-07 15:38:00,,0815.8,5.00,0.00,29.8,26.7,00.0,38.8,31.3,13.0,0000.0,0011.50,0003.80,0002.31
2022-05-07 15:39:00,,0815.8,5.01,0.00,29.8,27.1,00.0,38.8,31.4,13.3,0000.0,0011.64,0003.83,0002.30
2022-05-07 15:40:00,,0815.7,5.00,0.00,29.8,27.5,00.0,38.8,31.4,12.8,0000.0,0011.78,0003.86,0002.29
2022-05-07 15:41:00,,0815.7,5.00,0.00,29.8,27.8,00.0,38.7,31.5,13.6,0000.0,0012.37,0003.87,0002.30
2022-05-07 15:42:00,,0815.7,5.00,0.00,29.8,28.1,00.0,38.7,31.5,13.4,0000.0,0012.78,0003.85,0002.30
2022-05-07 15:43:00,,0815.7,5.01,0.00,29.8,28.3,00.0,38.7,31.6,13.1,0000.0,0013.15,0003.81,0002.28
2022-05-07 15:44:00,,0815.6,5.01,0.00,29.8,28.4,00.0,38.7,31.6,12.3,0000.0,0012.95,0003.81,0002.29
2022-05-07 15:45:00,,0815.7,5.01,0.00,29.9,28.6,00.0,38.7,31.7,11.7,0000.0,0013.32,0003.89,0002.30
2022-05-07 15:46:00,,0815.7,4.99,0.00,29.9,28.7,00.0,38.8,31.7,12.3,0000.0,0012.47,0003.93,0002.28
2022-05-07 15:47:00,,0815.7,4.99,0.00,30.0,28.8,00.0,38.8,31.8,13.2,0000.0,0012.81,0003.96,0002.26
2022-05-07 15:48:00,,0815.7,5.00,0.00,30.0,28.8,00.0,38.8,31.8,12.6,0000.0,0012.24,0003.95,0002.26
2022-05-07 15:49:00,,0815.6,5.00,0.00,30.0,27.4,00.0,38.8,31.5,12.7,0000.0,0012.25,0003.94,0002.26
2022-05-07 15:50:00,,0815.6,5.00,0.00,29.8,25.8,00.0,38.8,31.1,12.4,0000.0,0012.78,0003.93,0002.26
2022-05-07 15:51:00,,0815.6,5.00,0.00,29.7,26.0,00.0,38.7,31.1,12.9,0000.0,0012.92,0003.91,0002.27
2022-05-07 15:52:00,,0815.6,5.00,0.00,29.7,26.4,00.0,38.7,31.2,13.3,0000.0,0012.92,0003.89,0002.25
2022-05-07 15:53:00,,0815.6,5.00,0.00,29.6,26.9,00.0,38.6,31.2,12.9,0000.0,0012.46,0003.90,0002.25
2022-05-07 15:54:00,,0815.7,5.00,0.00,29.6,27.2,00.0,38.6,31.3,12.8,0000.0,0012.09,0003.94,0002.26
2022-05-07 15:55:00,,0816.1,5.00,0.00,29.6,27.6,00.0,38.6,31.3,12.9,0000.0,0012.37,0003.94,0002.25
2022-05-07 15:56:00,,0816.0,5.01,0.00,29.7,27.9,00.0,38.6,31.4,12.8,0000.0,0011.98,0003.86,0002.25
2022-05-07 15:57:00,,0815.9,5.00,0.00,29.7,28.1,00.0,38.6,31.4,13.1,0000.0,0011.51,0003.79,0002.25
2022-05-07 15:58:00,,0815.7,5.00,0.00,29.7,28.3,00.0,38.6,31.5,12.6,0000.0,0011.29,0003.73,0002.25
2022-05-07 15:59:00,,0815.6,5.00,0.00,29.8,28.4,00.0,38.6,31.6,12.9,0000.0,0011.25,0003.76,0002.24
